Location: The Saddle
(36.8333°N, 80.3417°W)
Time: 15:49:48
(UTC-05:00)

Transit 2A - Visible Passes

Search period start: 30 January 2023 00:00
Search period end: 09 February 2023 00:00
Orbit: 594 x 962 km, 66.7° (Epoch: 30 January)

Date Brightness Start Highest point End Pass type
(mag) Time Alt. Az. Time Alt. Az. Time Alt. Az.
30 Jan 7.1 18:39:21 10° SW 18:43:45 39° NW 18:48:37 10° NNE visible
31 Jan 6.4 18:04:32 10° SW 18:09:09 61° WNW 18:14:17 10° NNE visible
01 Feb 8.6 19:16:22 10° WNW 19:18:40 13° NW 19:21:04 10° NNW visible
02 Feb 8.3 18:40:25 10° W 18:43:49 18° NW 18:47:26 10° N visible
